Wind_Speed
16 17 17 18 22 20 15 14 12 11 11 10 8 7 7 6 6 5 4 2 3 5 7 8 9 9 9 9 9 8 8 7 7 7 7 7 6 5 5 4 4 4 4 3 3 3 3 2 2
16 14 16 20 20 16 13 13 13 12 12 11 10 9 9 8 7 6 4 3 3 6 7 7 8 9 9 9 9 8 8 8 7 7 7 6 6 5 4 4 3 3 3 3 3 2 2 2 2
15 14 16 20 19 14 11 12 13 13 13 12 10 10 10 10 8 6 5 4 3 5 7 7 8 9 9 9 9 9 8 8 8 7 7 6 5 4 4 4 3 2 2 2 2 2 2 2 2
14 14 17 18 15 10 11 12 13 13 13 14 12 11 11 11 9 6 5 4 3 6 7 7 9 10 10 10 10 10 9 8 8 7 7 6 6 5 4 4 3 2 2 1 1 1 1 1 2
13 14 17 16 11 9 11 12 11 11 12 13 14 15 13 12 10 8 6 5 4 4 6 8 9 10 10 11 11 10 10 9 8 8 7 6 6 5 4 4 3 2 1 1 1 1 1 1 2
12 14 15 13 9 8 10 11 10 10 11 13 15 15 14 13 11 9 7 5 4 4 6 7 9 9 11 12 12 11 10 10 9 8 8 7 6 5 4 4 3 2 2 1 1 1 1 2 2
11 12 10 9 6 7 9 10 10 12 11 14 15 14 15 15 12 11 9 7 4 4 5 6 8 10 11 12 12 12 11 10 10 9 8 7 6 6 5 4 3 2 2 1 1 1 1 1 2
11 8 8 7 5 7 9 10 10 12 12 13 14 16 16 15 14 12 10 8 6 4 5 6 8 10 11 12 13 13 13 12 11 10 9 8 7 6 6 5 3 3 2 2 2 1 1 2 2
10 8 7 5 4 6 9 9 10 12 12 11 13 16 16 15 13 12 11 9 7 5 6 7 8 9 11 13 14 14 13 13 12 11 9 9 8 7 6 5 4 3 3 3 2 1 1 2 2
6 6 5 4 6 7 8 9 9 11 13 13 14 16 16 15 13 12 11 8 8 6 7 7 8 10 11 13 14 15 15 14 12 11 10 9 8 7 5 4 4 4 3 3 2 2 2 2 2
2 2 3 5 7 7 7 8 9 11 14 15 16 16 16 15 13 12 11 10 9 8 8 8 8 10 11 13 14 15 16 15 13 12 11 10 8 7 6 5 4 4 3 3 2 2 2 3 3
2 1 5 6 7 7 7 7 9 11 14 15 15 15 15 15 15 13 12 11 11 9 9 9 9 9 10 13 14 15 16 15 14 13 12 11 9 7 6 5 4 4 3 3 2 2 3 4 4
4 5 5 6 7 8 8 8 10 11 14 15 15 15 15 15 15 14 13 13 11 11 10 9 9 9 10 12 14 15 16 15 14 13 12 11 9 8 7 6 5 4 4 3 3 3 3 4 4
3 5 6 6 7 8 9 9 10 12 14 15 15 14 15 15 15 15 14 14 13 12 11 10 9 8 9 12 14 15 16 16 15 14 13 12 11 10 8 7 5 5 4 4 3 3 3 3 3
5 5 5 6 7 8 9 10 9 11 15 16 15 15 15 15 16 15 15 15 14 13 12 10 9 7 8 11 13 15 16 15 15 14 13 12 12 11 9 7 6 5 4 4 3 3 2 3 3
5 7 8 8 9 10 9 11 12 12 16 16 15 14 15 16 16 15 15 15 14 13 13 11 9 7 7 9 12 14 15 15 15 15 14 13 12 11 9 8 7 6 5 4 4 3 2 3 2
6 9 9 9 11 12 9 10 13 13 16 17 16 15 16 15 16 16 15 15 15 14 13 12 9 7 5 7 10 12 15 15 15 15 14 13 12 11 10 9 8 7 6 5 4 4 3 3 2
4 7 9 9 12 14 11 10 12 14 16 18 17 17 16 16 16 16 16 15 15 14 13 12 10 7 6 7 10 11 13 14 15 15 13 13 12 11 10 9 9 8 7 6 5 5 4 4 3
9 9 10 11 13 15 12 11 12 15 16 18 18 17 17 17 17 16 15 14 14 14 13 12 10 8 7 7 9 11 13 14 14 14 14 13 13 12 11 10 9 9 8 8 7 6 6 5 4
11 11 10 11 14 15 13 11 13 15 17 18 18 17 17 16 17 16 15 14 14 13 12 12 11 9 7 7 7 9 11 14 14 14 13 14 14 13 12 11 10 10 9 9 8 8 7 6 6
12 12 11 13 14 13 13 12 14 17 16 18 19 18 17 18 16 14 14 14 13 13 13 13 11 9 7 6 6 8 10 13 15 14 14 14 15 15 14 13 11 11 10 10 10 9 9 8 7
13 13 14 15 13 12 11 13 15 18 17 16 17 18 17 17 15 13 14 14 13 14 13 13 11 8 7 6 6 7 9 10 13 14 14 15 15 14 14 14 13 12 12 11 11 11 10 9 9
14 15 15 15 14 12 10 12 14 16 17 15 17 18 18 16 15 15 14 14 13 13 13 13 11 9 7 6 6 7 8 9 11 13 14 15 15 14 14 15 15 14 13 13 13 12 12 11 11
16 16 15 13 12 12 10 11 12 16 17 18 20 19 18 17 15 14 14 14 13 13 13 12 11 8 6 6 6 7 8 8 9 11 13 14 14 15 15 15 16 15 15 14 14 14 13 13 12
16 15 13 12 12 12 11 11 13 18 19 21 21 20 18 16 16 15 14 14 13 13 12 12 11 8 7 6 5 6 7 8 9 10 12 13 14 15 15 16 17 17 16 16 16 15 14 14 14
16 15 13 12 12 13 11 11 13 16 19 20 19 19 18 16 16 15 14 14 13 12 12 12 10 8 6 5 6 6 6 7 9 11 12 13 14 15 16 16 17 17 18 17 17 16 16 16 16
17 16 14 16 16 16 13 11 16 19 18 17 18 18 18 16 16 14 13 13 12 11 11 11 9 7 6 6 6 7 8 9 9 11 12 13 14 15 16 16 17 17 18 18 18 18 18 18 18
18 16 16 17 17 17 15 15 18 19 18 16 16 18 18 16 15 14 14 12 12 12 11 10 9 8 7 7 7 9 9 10 11 11 12 13 14 15 16 17 17 18 19 19 19 19 19 20 20
17 18 19 18 18 16 16 16 18 19 19 18 16 18 19 17 16 15 14 14 13 13 12 11 10 9 8 8 8 8 9 10 12 13 13 14 15 16 17 18 18 18 19 19 19 20 20 21 21
18 17 17 19 19 18 16 17 19 16 17 18 17 20 20 18 17 16 15 14 14 14 13 12 11 11 10 9 10 9 10 10 11 12 13 14 15 16 17 18 19 19 19 19 19 20 20 21 21
Wind_Direction
78 78 76 70 63 55 41 27 13 8 9 14 14 2 359 350 338 329 317 280 212 203 191 189 177 171 173 179 183 185 187 188 190 189 186 184 179 171 163 156 146 137 129 125 126 124 117 118 116
85 85 76 66 61 50 30 14 5 10 10 10 10 357 356 349 340 332 319 287 226 206 203 196 189 187 188 190 192 194 195 197 197 197 196 195 191 184 179 172 160 148 134 125 121 127 128 132 136
90 86 74 67 54 33 13 5 8 11 7 8 6 357 355 350 342 334 319 291 244 221 210 207 203 198 197 198 199 201 202 204 204 207 209 208 205 200 196 186 171 156 140 128 118 126 135 135 144
94 84 75 71 60 21 9 6 7 5 4 3 357 355 1 355 350 341 323 310 258 230 219 215 210 208 205 204 205 207 208 210 213 216 218 218 218 213 206 197 185 170 151 135 124 126 140 141 146
90 72 67 71 55 14 6 6 0 3 1 358 354 357 3 359 353 348 338 318 290 240 228 225 216 212 211 209 210 211 211 214 219 224 227 227 227 224 217 210 198 186 183 178 159 141 152 151 153
75 62 57 56 45 9 2 356 353 350 353 353 351 357 6 1 355 351 345 331 312 262 236 231 220 216 215 214 214 214 216 220 226 230 231 233 233 233 228 219 208 202 200 182 187 190 161 158 154
83 65 54 51 13 2 353 348 347 343 356 354 350 351 2 360 359 355 349 341 319 280 253 241 230 223 220 217 216 217 221 226 231 234 235 236 240 237 231 223 215 211 210 211 207 201 176 168 168
96 81 72 56 354 349 339 343 341 341 349 354 351 351 359 359 358 356 352 348 333 302 267 250 237 228 223 221 219 220 224 227 232 237 238 241 242 239 236 231 223 220 222 214 208 211 211 184 176
99 79 63 45 322 316 323 334 341 337 335 342 353 353 356 358 357 355 351 342 331 307 279 261 248 235 226 223 222 223 223 224 230 236 240 242 240 241 241 240 229 226 226 221 222 223 209 189 187
94 58 38 333 299 299 317 332 336 324 324 335 351 354 353 353 354 355 353 346 333 315 292 276 263 245 231 225 223 223 222 222 228 234 237 240 239 243 244 243 232 228 226 224 225 224 205 199 201
84 15 337 296 297 306 318 330 331 325 325 334 341 347 351 354 353 351 350 343 334 321 304 285 268 251 236 226 222 221 221 221 226 232 234 237 239 242 243 243 238 233 226 224 217 207 205 216 209
350 303 280 285 299 316 317 322 323 322 321 326 333 339 345 350 350 350 348 343 336 324 314 297 274 255 238 226 222 220 219 222 224 230 234 235 240 245 244 244 245 239 228 220 203 207 206 214 216
310 311 296 296 307 314 314 319 317 313 317 319 327 336 339 344 347 347 346 341 336 331 320 306 290 262 241 229 225 220 220 223 224 226 231 234 242 250 250 251 246 239 234 229 217 216 221 221 218
307 300 301 313 314 312 318 312 302 308 319 321 327 334 338 341 344 343 342 338 337 335 325 312 300 273 245 235 230 223 220 224 224 225 229 234 241 249 253 252 251 244 240 234 222 221 227 225 218
321 318 333 326 313 312 307 303 300 307 316 321 326 334 335 338 340 339 338 336 336 333 329 321 310 287 257 244 236 227 223 223 223 227 231 235 241 249 252 249 250 251 248 241 236 233 229 222 220
335 343 340 322 311 304 310 306 312 315 313 318 320 328 332 333 335 336 336 336 335 333 331 327 322 299 266 248 235 228 227 226 225 228 231 236 240 246 247 246 249 252 250 248 239 234 214 206 209
344 328 322 311 299 298 306 304 306 310 309 313 316 322 327 328 329 330 332 335 335 334 331 329 329 316 274 250 233 227 227 225 227 228 230 234 239 243 245 246 249 248 244 244 238 229 212 204 204
301 290 287 286 286 293 296 292 298 303 306 307 310 317 323 324 326 326 327 330 333 332 330 328 328 317 284 257 244 234 227 227 228 227 227 230 236 242 245 245 245 244 240 241 237 228 219 216 216
259 254 258 266 275 285 288 285 288 298 305 307 311 317 320 321 323 323 324 326 330 332 330 327 322 313 294 274 250 237 228 227 225 225 226 228 230 236 240 240 240 242 241 243 242 236 229 228 228
266 266 268 276 281 289 292 294 287 295 305 309 313 315 318 318 320 321 321 321 326 328 329 329 323 310 299 281 256 234 227 225 224 224 226 229 230 235 237 238 240 241 243 242 244 244 238 235 236
267 268 267 268 273 288 300 304 293 293 301 310 315 316 317 316 315 319 319 318 324 329 327 327 323 310 296 282 262 244 233 226 225 225 226 230 233 236 237 237 237 241 244 245 245 246 240 239 240
268 271 271 274 276 277 281 289 291 292 298 309 311 315 314 313 312 315 321 316 321 326 326 325 323 307 292 280 260 245 236 229 223 224 226 231 236 234 234 237 240 242 243 245 243 244 242 243 244
261 262 267 274 276 275 274 274 280 286 291 301 309 312 313 312 314 316 320 319 318 321 322 324 322 313 294 278 256 241 233 229 224 224 226 230 233 233 233 235 239 241 241 241 243 244 245 245 246
264 266 270 275 280 284 280 266 272 274 280 294 303 305 308 308 310 311 314 319 319 320 320 321 320 316 299 278 256 238 230 231 231 229 229 231 235 238 237 236 239 240 240 242 244 246 246 246 247
264 265 268 277 283 285 277 266 262 265 278 291 296 300 303 305 306 308 308 314 316 317 319 321 321 312 296 277 254 234 229 232 232 233 234 235 239 240 238 239 242 241 241 243 246 248 248 249 249
259 256 251 255 271 285 280 261 265 270 283 291 294 298 301 302 302 303 307 312 315 317 319 320 319 311 297 275 252 246 242 242 242 238 242 241 241 241 241 243 245 243 243 244 246 249 250 252 254
247 250 246 250 257 270 281 282 281 280 287 291 296 301 305 303 302 302 308 310 317 320 320 319 317 316 302 284 263 256 253 252 255 249 247 247 247 246 246 245 247 247 248 246 246 249 252 253 256
243 240 247 244 249 254 258 263 261 262 276 288 296 301 306 304 302 302 304 310 315 315 316 318 314 313 302 287 275 267 263 261 258 255 250 249 251 251 249 250 252 253 252 250 249 250 253 255 257
250 239 235 239 241 247 260 270 272 270 282 287 293 299 304 305 304 305 303 301 303 304 306 313 313 308 299 289 279 272 270 267 258 256 253 253 254 254 251 250 252 255 255 253 253 252 252 255 258
248 247 241 240 238 236 249 270 281 280 284 291 295 298 301 299 299 300 301 300 300 302 303 303 303 302 298 291 288 280 281 276 265 261 261 260 260 256 254 253 253 254 256 255 254 255 255 256 259
Height
5895 5895 5895 5894 5892 5893 5895 5895 5894 5892 5891 5890 5888 5886 5885 5884 5883 5884 5881 5881 5882 5883 5883 5884 5885 5886 5888 5889 5891 5892 5892 5893 5894 5894 5895 5895 5895 5896 5896 5896 5896 5896 5896 5896 5897 5897 5897 5897 5897
5897 5897 5896 5894 5894 5896 5898 5897 5895 5894 5892 5890 5889 5887 5885 5884 5883 5882 5881 5881 5882 5883 5884 5885 5886 5887 5888 5890 5891 5892 5893 5894 5894 5895 5895 5896 5896 5896 5896 5896 5896 5897 5897 5897 5897 5897 5898 5898 5898
5899 5899 5898 5896 5897 5900 5901 5899 5897 5895 5893 5891 5890 5888 5887 5885 5884 5883 5882 5882 5882 5882 5883 5884 5886 5887 5888 5890 5891 5892 5893 5894 5894 5895 5896 5896 5896 5897 5897 5897 5897 5897 5897 5898 5898 5898 5898 5898 5898
5900 5900 5898 5899 5901 5904 5903 5901 5899 5896 5895 5893 5890 5888 5886 5886 5884 5883 5882 5881 5882 5882 5883 5884 5885 5887 5888 5889 5891 5892 5893 5894 5895 5895 5896 5896 5897 5897 5897 5897 5897 5898 5898 5898 5898 5899 5899 5899 5899
5900 5900 5900 5900 5905 5906 5904 5902 5900 5897 5896 5894 5891 5889 5887 5886 5884 5883 5882 5881 5882 5882 5882 5883 5884 5886 5887 5889 5890 5892 5893 5894 5895 5895 5896 5896 5897 5897 5897 5898 5898 5898 5898 5899 5899 5899 5899 5899 5899
5901 5901 5902 5903 5907 5908 5907 5904 5901 5899 5896 5895 5892 5890 5887 5887 5884 5883 5882 5880 5881 5881 5882 5882 5883 5885 5887 5888 5890 5891 5892 5893 5894 5895 5896 5896 5897 5897 5897 5898 5898 5898 5898 5899 5899 5899 5899 5899 5900
5904 5903 5904 5906 5909 5908 5908 5905 5903 5900 5897 5896 5893 5889 5887 5886 5884 5883 5882 5880 5880 5881 5881 5882 5883 5884 5885 5887 5889 5890 5892 5893 5894 5895 5896 5896 5897 5897 5897 5898 5898 5898 5898 5899 5899 5900 5900 5900 5900
5905 5906 5906 5909 5911 5910 5908 5906 5903 5901 5898 5897 5894 5890 5888 5887 5885 5883 5882 5880 5878 5879 5880 5880 5881 5882 5884 5886 5887 5889 5891 5892 5893 5894 5895 5896 5897 5897 5897 5897 5898 5898 5898 5899 5899 5900 5900 5900 5900
5907 5908 5908 5910 5912 5911 5909 5906 5904 5901 5898 5895 5893 5891 5889 5887 5885 5883 5881 5879 5879 5879 5879 5879 5879 5881 5882 5884 5885 5887 5889 5891 5892 5893 5894 5895 5896 5896 5897 5897 5898 5898 5898 5899 5899 5899 5900 5900 5900
5908 5909 5910 5911 5911 5910 5908 5906 5905 5901 5897 5893 5892 5891 5889 5887 5885 5884 5881 5879 5878 5878 5878 5878 5878 5879 5880 5882 5883 5885 5887 5889 5891 5892 5894 5895 5895 5896 5897 5897 5898 5898 5898 5899 5899 5899 5900 5900 5900
5909 5909 5910 5911 5910 5908 5907 5906 5904 5901 5897 5895 5893 5891 5890 5887 5886 5883 5881 5879 5878 5877 5876 5876 5876 5877 5878 5880 5881 5884 5886 5888 5890 5891 5893 5894 5895 5896 5896 5897 5897 5898 5898 5898 5899 5899 5900 5900 5900
5909 5909 5909 5909 5908 5907 5906 5905 5904 5902 5898 5896 5893 5891 5890 5888 5885 5883 5881 5879 5877 5875 5874 5874 5874 5874 5875 5877 5879 5881 5884 5886 5888 5890 5892 5893 5894 5895 5896 5897 5897 5898 5898 5898 5899 5899 5900 5900 5900
5908 5908 5908 5907 5906 5905 5905 5904 5903 5901 5898 5896 5894 5892 5889 5887 5885 5883 5880 5878 5876 5874 5873 5873 5872 5872 5873 5874 5877 5879 5882 5884 5886 5888 5890 5892 5893 5894 5895 5896 5897 5897 5898 5898 5899 5899 5899 5900 5900
5906 5906 5906 5906 5906 5905 5904 5903 5902 5899 5897 5895 5893 5891 5889 5887 5885 5883 5880 5877 5875 5873 5872 5871 5870 5870 5871 5873 5875 5877 5880 5882 5885 5887 5889 5891 5892 5894 5895 5896 5896 5897 5897 5898 5899 5899 5899 5900 5900
5905 5905 5905 5905 5905 5904 5904 5902 5899 5898 5896 5894 5892 5890 5888 5886 5884 5882 5880 5877 5874 5872 5871 5870 5869 5869 5870 5871 5873 5875 5878 5881 5883 5885 5887 5889 5891 5892 5894 5895 5896 5896 5897 5898 5899 5899 5899 5900 5900
5904 5904 5905 5905 5904 5904 5904 5902 5899 5897 5895 5893 5890 5888 5887 5885 5883 5881 5879 5877 5874 5872 5870 5869 5868 5867 5868 5869 5871 5873 5876 5878 5881 5884 5886 5888 5889 5891 5893 5894 5895 5896 5897 5898 5898 5899 5899 5900 5900
5903 5905 5906 5906 5904 5903 5903 5901 5899 5896 5894 5892 5889 5887 5886 5884 5882 5880 5878 5876 5874 5872 5870 5868 5867 5867 5867 5868 5869 5872 5874 5876 5879 5882 5884 5886 5888 5890 5892 5893 5894 5895 5896 5897 5898 5898 5899 5900 5900
5904 5906 5907 5907 5905 5902 5901 5900 5898 5896 5894 5891 5888 5886 5884 5883 5881 5879 5876 5874 5873 5871 5869 5867 5866 5866 5866 5866 5868 5870 5872 5874 5877 5879 5882 5884 5886 5889 5890 5892 5893 5895 5896 5896 5897 5898 5899 5899 5900
5902 5903 5904 5904 5903 5901 5899 5898 5896 5895 5892 5889 5886 5884 5882 5881 5880 5877 5875 5873 5872 5870 5868 5867 5865 5865 5864 5865 5866 5868 5870 5872 5875 5877 5880 5883 5885 5887 5889 5891 5892 5894 5895 5896 5896 5897 5898 5899 5899
5899 5900 5901 5902 5900 5898 5897 5895 5894 5892 5891 5888 5885 5883 5881 5880 5878 5876 5874 5873 5871 5869 5867 5866 5864 5863 5863 5863 5864 5866 5867 5870 5873 5875 5878 5881 5883 5885 5887 5889 5891 5893 5894 5894 5895 5896 5897 5898 5899
5896 5897 5898 5898 5897 5896 5895 5894 5893 5890 5887 5886 5884 5882 5880 5878 5876 5875 5873 5872 5870 5868 5867 5865 5863 5861 5861 5861 5862 5864 5866 5868 5871 5874 5876 5879 5881 5883 5885 5887 5889 5891 5892 5893 5894 5895 5896 5897 5897
5893 5894 5894 5894 5894 5894 5894 5893 5891 5887 5883 5883 5882 5880 5879 5877 5873 5872 5871 5870 5869 5868 5866 5864 5862 5860 5860 5860 5861 5862 5864 5866 5869 5872 5874 5876 5879 5881 5883 5885 5887 5888 5890 5891 5892 5893 5894 5895 5896
5890 5890 5891 5890 5890 5890 5891 5891 5891 5886 5882 5880 5880 5879 5877 5875 5873 5871 5870 5869 5868 5867 5865 5863 5861 5859 5859 5859 5860 5861 5863 5865 5867 5870 5872 5874 5876 5878 5880 5883 5884 5886 5888 5889 5890 5891 5892 5893 5894
5885 5886 5887 5887 5887 5888 5889 5889 5887 5885 5882 5879 5878 5877 5876 5874 5872 5871 5870 5868 5867 5866 5864 5862 5861 5859 5858 5858 5859 5860 5862 5864 5866 5868 5870 5872 5874 5876 5878 5880 5882 5883 5885 5886 5888 5889 5890 5891 5892
5882 5883 5884 5884 5885 5885 5885 5885 5885 5882 5881 5879 5877 5875 5874 5873 5871 5869 5869 5867 5866 5865 5863 5861 5860 5858 5857 5858 5858 5859 5861 5863 5865 5866 5868 5870 5872 5874 5876 5877 5879 5881 5882 5883 5885 5886 5887 5888 5889
5877 5879 5881 5883 5883 5881 5880 5881 5881 5878 5878 5877 5875 5873 5872 5871 5869 5867 5866 5865 5864 5863 5862 5860 5859 5857 5857 5857 5858 5859 5860 5862 5863 5865 5866 5868 5869 5871 5873 5875 5876 5877 5879 5880 5881 5883 5884 5885 5886
5873 5875 5878 5880 5880 5881 5880 5880 5878 5875 5874 5874 5872 5870 5869 5868 5866 5864 5865 5864 5863 5862 5861 5859 5858 5857 5856 5856 5857 5858 5859 5861 5862 5863 5864 5865 5867 5868 5870 5871 5873 5874 5875 5877 5878 5879 5880 5882 5883
5869 5872 5874 5875 5876 5877 5878 5877 5875 5870 5870 5870 5869 5868 5867 5866 5865 5864 5863 5861 5861 5861 5860 5859 5857 5856 5856 5856 5856 5857 5858 5859 5859 5860 5861 5862 5864 5865 5866 5868 5869 5870 5872 5873 5874 5875 5876 5877 5878
5865 5867 5868 5871 5873 5874 5874 5874 5869 5868 5867 5866 5865 5865 5864 5863 5863 5862 5861 5861 5860 5859 5859 5858 5856 5856 5855 5855 5855 5855 5856 5857 5857 5858 5859 5860 5861 5862 5863 5864 5865 5866 5867 5868 5870 5871 5872 5873 5874
5861 5862 5864 5866 5867 5869 5870 5872 5865 5865 5864 5863 5863 5863 5862 5861 5861 5860 5859 5859 5858 5857 5857 5856 5855 5854 5854 5854 5853 5853 5853 5854 5855 5855 5856 5856 5857 5858 5859 5860 5861 5862 5863 5864 5865 5866 5867 5868 5869